Regional Weather Roundup
Issued by NWS Bismarck, ND

Home | Current Version | Previous Version | Text Only | Print | Product List | Glossary On
Versions: 1 2 3 4 5 6 7 8 9 10 11 12 13 14 15 16 17 18 19 20 21 22 23 24 25 26 27 28 29 30 31 32 33 34 35 36 37 38 39 40 41 42 43 44 45 46 47 48 49 50
000
ASUS43 KBIS 260410
RWRBIS

NWR BROADCAST TEXT
NATIONAL WEATHER SERVICE BISMARCK ND
1100 PM CDT WED APR 25 2018

NOTE: "FAIR" INDICATES FEW OR NO CLOUDS BELOW 12,000 FEET WITH NO
SIGNIFICANT WEATHER AND/OR OBSTRUCTIONS TO VISIBILITY.


CITY           SKY/WX    TMP DP  RH WIND       PRES   REMARKS
WILLISTON      PTCLDY    52  36  54 N16       30.02R
MINOT          PTCLDY    53  36  52 NW18      29.91R
MINOT AFB      MOCLDY    53  35  50 N16G22    29.90R
BISMARCK       MOCLDY    55  31  39 NW8       29.82R
DICKINSON      MOCLDY    52  31  44 N14       29.94R
GARRISON         N/A     51  36  56 N21       29.88R
HETTINGER ARPT CLOUDY    51  31  46 NW16      29.91R
JAMESTOWN      CLOUDY    49  32  52 S10       29.76F
CARRINGTON     FAIR      52  32  46 SW8       29.79S
HAZEN          CLOUDY    54  36  50 N15       29.91R
MANDAN         FAIR      54  30  40 NW13      29.84R
OAKES            N/A     50  36  57 S18       29.82F
RUGBY          FAIR      50  32  50 N23G32    29.85R
STANLEY          N/A     48  34  57 N14G21    29.99R
TIOGA          FAIR      48  32  53 N18       30.00R
WATFORD CITY   FAIR      52  34  50 N15G21    29.99R
$$

CITY           SKY/WX    TMP DP  RH WIND       PRES   REMARKS
GRAND FORKS    MOCLDY    47  40  76 S10       29.74F
GRAND FORKS AF FAIR      51  36  56 S7        29.73F
DEVILS LAKE    FAIR      52  33  48 N28G35    29.80R
FARGO          FAIR      53  36  52 S17       29.80F
CANDO          FAIR      50  32  50 N21G30    29.86R
CAVALIER         N/A     52  32  46 N18       29.80R
GRAFTON        FAIR      54  34  47 NW21G31   29.78R
GWINNER          N/A     50  37  62 SW20      29.81F
LANGDON        FAIR      48  32  53 N17G25    29.84R
ROLLA          CLOUDY    46  32  57 N15G22    29.89R
WALHALLA       FAIR      50  32  50 N14       29.84R
$$

CITY           SKY/WX    TMP DP  RH WIND       PRES   REMARKS
ABERDEEN       MOCLDY    47  37  68 S12       29.87F
MOBRIDGE       CLOUDY    50  34  54 S8        29.81S
BUFFALO          N/A     56  30  37 NW22G30   29.89R
RAPID CITY     MOCLDY    53  33  46 N17       29.94R
GLASGOW        CLEAR     49  30  48 N8        30.09R
SIDNEY         CLEAR     52  30  43 N15       30.03R
WOLF POINT     MOCLDY    50  32  50 NW8       30.07R
GLENDIVE       PTCLDY    51  30  44 N17       30.05R
MILES CITY     MOCLDY    54  33  45 N22       30.07R
BAKER          CLEAR     48  34  58 N15       30.02R
$$

CITY           SKY/WX    TMP DP  RH WIND       PRES   REMARKS
BILLINGS       PTCLDY    47  36  65 SW5       30.22R
GREAT FALLS    CLEAR     38  32  79 S10       30.23R
REGINA         CLEAR     41  25  52 NW8       30.05R
ESTEVAN        PTCLDY    41  28  60 N9        30.00R
$$





USA.gov is the U.S. government's official web portal to all federal, state and local government web resources and services.